Content
SEND FEEDBACK

Daily
Averages
Monthly
Summary
France

CAEN, FRANCE


Home > Europe > France
Elevation: 220 feet     Latitude: 49 11N     Longitude: 000 27W

WEATHER
 
SELECT A DAY
Number of Records: 227,274;   Date Range: 7/1/96 - 12/21/14
 
SHARE

PRINT THIS DATA

[ ← Previous Day ]
WEATHER ALMANAC - FEBRUARY 4, 2013
[ Next Day → ]
[ °C ]   °F
Weather ElementAverageHighLow
Temperature48.5 °F52 °F (1:00 pm)44.6 °F (11:00 pm)
Dewpoint42.9 °F48.2 °F (10:00 am)37 °F (7:00 pm)
Humidity80.7 %94 % (10:00 am)60 % (7:00 pm)
Barometer30.07 in30.12 in (7:00 pm)30.04 in (5:00 am)
Wind Speed16.3 mph25.3 mph (2:00 pm)
Wind Gust32.2 mph (7:00 am)
Weather ElementAverage
Visibility6.5 mi
Wind DirectionW (270 °)

Weather ElementTotal
Precipitation---
Heating Degree Days16.7 (Base 65)
Averaged from 47 records on February 4, 2013
WEATHER CONDITIONS BREAKOUT
WIND DIRECTION BREAKOUT
WEATHER BY HOUR - FEBRUARY 4, 2013
[ °C ]   °F
Local TimeTemperatureDewpointHumidityBarometerVisibilityWind DirectionWind SpeedGust SpeedPrecipitationEventsConditions
12:30 AM48.2 °F46.4 °F93 %30.06 in6.2 miWest (270°)17.3 mphOvercast
1:00 AM49.0 °F46.0 °F87 %30.10 in11.0 miWest (270°)15.0 mphClear
1:00 AM48.2 °F46.4 °F93 %30.06 in6.2 miWest (270°)15.0 mphOvercast
1:30 AM48.2 °F46.4 °F93 %30.06 in6.2 miWest (260°)13.8 mphMostly Cloudy
2:00 AM48.2 °F46.4 °F93 %30.06 in5.6 miWest (270°)18.4 mphMostly Cloudy
2:30 AM48.2 °F46.4 °F93 %30.06 in6.2 miWest (270°)17.3 mphMostly Cloudy
3:00 AM48.2 °F46.4 °F93 %30.06 in6.2 miWest (270°)18.4 mphOvercast
3:30 AM48.2 °F46.4 °F93 %30.06 in6.2 miWest (270°)19.6 mphOvercast
4:00 AM48.2 °F46.4 °F93 %30.06 in6.2 miWest (270°)17.3 mphOvercast
4:30 AM50.0 °F46.4 °F87 %30.06 in6.2 miWest (270°)17.3 mphOvercast
5:00 AM50.0 °F46.4 °F87 %30.04 in6.2 miWest (260°)18.4 mphOvercast
5:30 AM50.0 °F46.4 °F87 %30.06 in6.2 miWest (270°)16.1 mphMostly Cloudy
6:00 AM50.0 °F46.4 °F87 %30.06 in6.2 miWest (260°)11.5 mphOvercast
6:30 AM50.0 °F46.4 °F87 %30.06 in3.7 miWest (270°)15.0 mphOvercast
7:00 AM50.0 °F47.0 °F84 %30.07 in6.0 miWest (270°)19.6 mphOvercast
7:00 AM50.0 °F46.4 °F87 %30.04 in6.2 miWest (270°)19.6 mph32.2 mphOvercast
7:30 AM50.0 °F46.4 °F87 %30.06 in5.0 miWest (280°)21.9 mphOvercast
8:00 AM50.0 °F46.4 °F87 %30.06 in6.2 miWest (270°)19.6 mphOvercast
8:30 AM50.0 °F46.4 °F87 %30.06 in6.2 miWest (260°)17.3 mphOvercast
9:00 AM50.0 °F46.4 °F87 %30.06 in6.2 miWest (270°)17.3 mphOvercast
9:30 AM50.0 °F46.4 °F87 %30.06 in6.2 miWest (270°)15.0 mphOvercast
10:00 AM50.0 °F48.2 °F94 %30.06 in6.2 miWest (270°)16.1 mphRainLight Rain
10:30 AM50.0 °F46.4 °F87 %30.06 in6.2 miWest (270°)15.0 mphOvercast
1:00 PM51.8 °F46.4 °F82 %30.09 in6.2 miWNW (290°)20.7 mphMostly Cloudy
1:00 PM52.0 °F46.0 °F71 %30.10 in19.0 miWNW (290°)20.7 mphPartly Cloudy
1:30 PM51.8 °F44.6 °F76 %30.09 in6.2 miWNW (290°)19.6 mphMostly Cloudy
2:00 PM50.0 °F41.0 °F71 %30.09 in6.2 miWNW (300°)25.3 mphOvercast
2:30 PM51.8 °F41.0 °F67 %30.09 in6.2 miWest (280°)19.6 mphMostly Cloudy
3:00 PM50.0 °F41.0 °F71 %30.09 in6.2 miNW (310°)15.0 mphOvercast
3:30 PM48.2 °F39.2 °F71 %30.09 in6.2 miWest (280°)20.7 mphOvercast
4:00 PM48.2 °F39.2 °F71 %30.09 in6.2 miWNW (290°)16.1 mphOvercast
4:30 PM48.2 °F39.2 °F71 %30.09 in6.2 miWest (280°)15.0 mphOvercast
5:00 PM48.2 °F39.2 °F71 %30.09 in6.2 miWest (280°)17.3 mphOvercast
5:30 PM46.4 °F37.4 °F71 %30.09 in6.2 miWest (280°)16.1 mphOvercast
6:00 PM46.4 °F37.4 °F71 %30.09 in6.2 miWest (260°)11.5 mphOvercast
6:30 PM46.4 °F37.4 °F71 %30.09 in6.2 miWest (270°)11.5 mphOvercast
7:00 PM47.0 °F37.0 °F60 %30.12 in9.0 miWest (260°)11.5 mphClear
7:00 PM46.4 °F37.4 °F71 %30.09 in6.2 miWest (260°)11.5 mphOvercast
7:30 PM46.4 °F39.2 °F76 %30.09 in6.2 miWest (260°)13.8 mphOvercast
8:00 PM46.4 °F37.4 °F71 %30.09 in6.2 miWest (270°)17.3 mphOvercast
8:30 PM46.4 °F37.4 °F71 %30.06 in6.2 miWest (260°)11.5 mphOvercast
9:00 PM46.4 °F37.4 °F71 %30.06 in6.2 miWSW (250°)10.4 mphOvercast
9:30 PM46.4 °F37.4 °F71 %30.06 in6.2 miWSW (250°)12.7 mphOvercast
10:00 PM46.4 °F39.2 °F76 %30.06 in6.2 miWSW (250°)16.1 mphMostly Cloudy
10:30 PM46.4 °F39.2 °F76 %30.04 in6.2 miWSW (250°)13.8 mphOvercast
11:00 PM44.6 °F39.2 °F81 %30.04 in6.2 miWSW (250°)15.0 mphMostly Cloudy
11:30 PM44.6 °F39.2 °F81 %30.04 in6.2 miWSW (250°)12.7 mphMostly Cloudy
Hourly data recorded from LFRK, located miles away from Caen, France







STORIES FROM OUR PARTNERS